Printer-friendly version

IAU Minor Planet Center

Minor Planet Center

MPEC 2009-F09 : 2009 FD

The following Minor Planet Electronic Circular may be linked-to from your own Web pages, but must not otherwise be redistributed electronically.


Read MPEC 2009-F08 Read MPEC 2009-F10


M.P.E.C. 2009-F09                                Issued 2009 Mar. 17, 14:10 UT

     The Minor Planet Electronic Circulars contain information on unusual
         minor planets and routine data on comets.  They are published
   on behalf of Commission 20 of the International Astronomical Union by the
          Minor Planet Center, Smithsonian Astrophysical Observatory,
                          Cambridge, MA 02138, U.S.A.

             Prepared using the Tamkin Foundation Computer Network

                              MPC@CFA.HARVARD.EDU
          URL http://www.cfa.harvard.edu/iau/mpc.html  ISSN 1523-6714

                                    2009 FD

Observations:
     K09F00D  C2009 02 24.36493 12 52 49.37 +00 09 47.3                 EF009691
     K09F00D  C2009 02 24.38301 12 52 49.94 +00 09 45.4                 EF009691
     K09F00D  C2009 02 24.40134 12 52 50.58 +00 09 43.6                 EF009691
     K09F00D* C2009 03 16.14600 13 06 22.74 +00 06 05.0          18.0 V EF009J75
     K09F00D  C2009 03 16.16001 13 06 23.20 +00 06 06.6          17.9 V EF009J75
     K09F00D  C2009 03 16.17413 13 06 23.75 +00 06 08.6          18.2 V EF009J75
     K09F00D  C2009 03 16.87132 13 07 13.49 +00 07 44.1          18.9 V EF009J75
     K09F00D  C2009 03 16.87984 13 07 14.01 +00 07 45.8          18.7 V EF009J75
     K09F00D  C2009 03 16.88709 13 07 14.44 +00 07 47.0          18.4 V EF009J75
     K09F00D  C2009 03 16.91981 13 07 14.99 +00 07 43.0          18.2 R EF009A99
     K09F00D  C2009 03 16.92138 13 07 15.03 +00 07 43.4          18.5 R EF009A99
     K09F00D  C2009 03 16.92292 13 07 15.15 +00 07 43.7          18.6 R EF009A99
     K09F00D  C2009 03 16.92448 13 07 15.16 +00 07 43.6          18.5 R EF009A99
     K09F00D  C2009 03 16.92603 13 07 15.26 +00 07 43.9          18.4 R EF009A99
     K09F00D  C2009 03 16.93067 13 07 16.59 +00 07 53.1          17.9 V EF009J75
     K09F00D  C2009 03 16.93919 13 07 16.97 +00 07 54.5          17.8 V EF009J75
     K09F00D  C2009 03 16.94772 13 07 17.30 +00 07 55.9          18.0 V EF009J75
     K09F00D  C2009 03 16.95624 13 07 17.70 +00 07 57.4          17.8 V EF009J75
     K09F00D  C2009 03 16.96157 13 07 16.85 +00 07 51.5          17.9 V EF009B33
     K09F00D  C2009 03 16.96476 13 07 18.05 +00 07 58.4          17.7 V EF009J75
     K09F00D  C2009 03 16.96882 13 07 17.14 +00 07 52.3          17.9 V EF009B33
     K09F00D  C2009 03 16.97329 13 07 18.54 +00 07 59.8          17.9 V EF009J75
     K09F00D  C2009 03 16.98182 13 07 18.76 +00 08 01.1          17.7 V EF009J75
     K09F00D  C2009 03 16.99034 13 07 19.16 +00 08 03.3                 EF009J75
     K09F00D  C2009 03 16.99887 13 07 19.48 +00 08 03.8                 EF009J75
     K09F00D  C2009 03 17.00340 13 07 19.15 +00 07 49.5                 EF009J95
     K09F00D  C2009 03 17.00697 13 07 19.72 +00 08 06.0                 EF009J75
     K09F00D  C2009 03 17.00756 13 07 19.34 +00 07 50.0                 EF009J95
     K09F00D  C2009 03 17.01175 13 07 19.51 +00 07 50.8          17.8 R EF009J95
     K09F00D  C2009 03 17.14352 13 07 30.66 +00 08 21.1          18.4 R EF009H26
     K09F00D  C2009 03 17.14674 13 07 30.81 +00 08 21.0          18.4 R EF009H26
     K09F00D  C2009 03 17.14997 13 07 31.14 +00 08 21.1          18.5 R EF009H26
     K09F00D  C2009 03 17.15760313 07 24.78 +00 08 15.9          17.7 V EF009B03
     K09F00D  C2009 03 17.16133613 07 24.93 +00 08 17.2          18.1 V EF009B03
     K09F00D  C2009 03 17.16506213 07 25.26 +00 08 17.9          18.5 V EF009B03
     K09F00D  C2009 03 17.27752 13 07 37.47 +00 08 46.6          18.1 R EF009H36
     K09F00D  C2009 03 17.29231 13 07 38.04 +00 08 48.9          17.9 R EF009H36
     K09F00D  C2009 03 17.29972 13 07 38.33 +00 08 50.1          17.9 R EF009H36
     K09F00D  C2009 03 17.33774313 07 39.20 +00 08 55.5          17.7 V EF009H55
     K09F00D  C2009 03 17.34161313 07 39.34 +00 08 56.0          17.8 V EF009H55
     K09F00D  C2009 03 17.34547613 07 39.49 +00 08 56.7          17.8 V EF009H55
     K09F00D  C2009 03 17.37318 13 07 42.42 +00 09 10.7          17.5 V EF009G96
     K09F00D 5C2009 03 17.37928213 07 43.284+00 09 08.75         18.5 R EF009673
     K09F00D  C2009 03 17.38356 13 07 42.79 +00 09 12.4          17.5 V EF009G96
     K09F00D 5C2009 03 17.38506913 07 43.486+00 09 09.74                EF009673
     K09F00D %C2009 03 17.38564 13 07 42.41 +00 09 11.8          17.7 R EF009H06
     K09F00D 5C2009 03 17.39085613 07 43.693+00 09 10.86                EF009673
     K09F00D 5C2009 03 17.39340313 07 43.829+00 09 11.03                EF009673
     K09F00D %C2009 03 17.40999 13 07 43.32 +00 09 15.8          17.7 R EF009H06
     K09F00D  C2009 03 17.42856 13 07 44.51 +00 09 19.9          18.1 R EF009854
     K09F00D  C2009 03 17.43431 13 07 44.73 +00 09 21.2          18.0 R EF009854
     K09F00D  C2009 03 17.44008 13 07 44.98 +00 09 22.0          18.0 R EF009854

Observer details:
673 Table Mountain Observatory, Wrightwood.  Observer J. Young.  0.61-m f/16
    Cassegrain + CCD.
691 Steward Observatory, Kitt Peak.  Observer T. H. Bressi.  0.9-m f/3
    reflector + CCD.
854 Sabino Canyon Observatory, Tucson.  Observer J. E. McGaha.  0.36-m f/10.0
    Schmidt-Cassegrain + CCD.
A99 Osservatorio del Monte Baldo.  Observer C. Flavio.  Measurer M. Claudio.
    0.4-m reflector + CCD.
B03 Alter Satzberg, Vienna.  Observer M. Pietschnig.  0.35-m f/5.8
    Schmidt-Cassegrain + CCD.
B33 Libbiano Observatory, Peccioli.  Observers P. Bacci, R. Emilio, R. Enzo,
    D. Antonacci.  Measurer P. Bacci.  0.5-m f/10 Ritchey-Chretien + CCD.
G96 Mt. Lemmon Survey.  Observer S. M. Larson.  Measurers E. C. Beshore,
    A. Boattini, G. J. Garradd, A. R. Gibbs, A. D. Grauer, R. E. Hill,
    R. A. Kowalski, S. M. Larson, R. H. McNaught.  1.5-m reflector + CCD.
H06 RAS Observatory, Mayhill.  Observers E. Guido, G. Sostero, P. Camilleri.
    0.25-m f/3.4 reflector + CCD.
H26 Doc Greiner Research Observatory, Janesvillle.  Observer M. Mills.  0.40-m
    f/8 Schmidt-Cassegrain + CCD.
H36 Sandlot Observatory, Scranton.  Observer G. Hug.  0.56-m reflector + CCD.
H55 Astronomical Research Observatory, Charleston.  Observer R. Holmes.
    Measurer S. Foglia.
J75 OAM Observatory, La Sagra.  Observers S. Sanchez, J. Nomen, R. Stoss,
    W. K. Y. Yeung, J. Rodriguez, A. Cikota, S. Cikota.  0.40-m f/10 reflector
    + CCD, 0.45-m f/2.8 reflector + CCD.
J95 Great Shefford.  Observer P. Birtwhistle.  0.40-m f/6.0 Schmidt-Cassegrain
    + CCD.

Orbital elements:
2009 FD                                                  Earth MOID = 0.0024 AU
Epoch 2009 June 18.0 TT = JDT 2455000.5                 MPC
M  18.54159              (2000.0)            P               Q
n   0.78658354     Peri.  281.30236     +0.35649427     +0.93425275
a   1.1622676      Node     9.59779     -0.83438452     +0.32275995
e   0.4922143      Incl.    3.14427     -0.42037401     +0.15165031
P   1.25           H   22.1           G   0.15           U   8
Residuals in seconds of arc
090224 691  0.1+  0.1-    090316 B33  0.0   0.0     090317 H36  0.3-  0.1-
090224 691  0.3-  0.1-    090316 J75  0.2-  0.0     090317 H36  0.2-  0.1-
090224 691  0.2+  0.1+    090316 B33  0.1-  0.3-    090317 H55  0.1+  0.1-
090316 J75  0.1+  0.2+    090316 J75  1.8+  0.1+    090317 H55  0.1-  0.2-
090316 J75  0.3-  0.0     090316 J75  0.1-  0.1+    090317 H55  0.2-  0.2-
090316 J75  0.3+  0.2+    090316 J75  0.8+  1.0+    090317 G96  0.1-  0.1+
090316 J75  1.0-  0.2-    090316 J75  0.6+  0.2+    090317 673  0.3+  0.3-
090316 J75  0.2-  0.2+    090317 J95  0.1-  0.0     090317 G96  0.2-  0.1+
090316 J75  0.5+  0.3+    090317 J75  0.5-  1.1+    090317 673  0.1+  0.2-
090316 A99  0.3+  0.2+    090317 J95  0.0   0.2-    090317 H06  0.1-  0.2-
090316 A99  0.2-  0.3+    090317 J95  0.2-  0.0     090317 673  0.0   0.1-
090316 A99  0.6+  0.4+    090317 H26 (2.2-  0.8+)   090317 673  0.6+  0.3-
090316 A99  0.3-  0.1+    090317 H26 (2.5-  0.2+)   090317 H06  0.2-  0.3-
090316 A99  0.2+  0.1+    090317 H26  0.1-  0.3-    090317 854  0.3+  0.2-
090316 J75  0.5+  0.2-    090317 B03  0.8-  0.7-    090317 854  0.3+  0.1+
090316 J75  0.3+  0.0     090317 B03  1.4-  0.0     090317 854  0.6+  0.0
090316 J75  0.4-  0.1+    090317 B03  0.7+  0.1+
090316 J75  0.0   0.3+    090317 H36  0.1-  0.0

Ephemeris:
2009 FD                  a,e,i = 1.16, 0.49, 3                   q = 0.5902
Date    TT    R. A. (2000) Decl.     Delta      r     Elong.  Phase     V
2009 03 10    13 01.69   -00 00.1    0.167    1.146   154.5    21.9    19.6
2009 03 12    13 03.04   +00 01.1    0.147    1.130   156.1    20.8    19.2
2009 03 14    13 04.53   +00 03.2    0.128    1.113   157.7    19.8    18.9
2009 03 16    13 06.27   +00 06.6    0.109    1.097   159.2    18.8    18.4
2009 03 18    13 08.46   +00 11.9    0.0897   1.080   160.5    17.9    18.0
2009 03 20    13 11.53   +00 20.4    0.0709   1.063   161.6    17.2    17.4
2009 03 22    13 16.46   +00 35.0    0.0523   1.046   162.1    17.0    16.7
2009 03 24    13 26.41   +01 05.5    0.0339   1.029   161.3    18.1    15.8
2009 03 26    13 59.13   +02 45.5    0.0157   1.012   154.7    25.0    14.3
2009 03 28    21 34.93   +09 20.4    0.00530  0.994    43.2   136.6    17.1
2009 03 30    00 17.43   +02 27.6    0.0221   0.977     4.4   175.5

Sonia Keys                   (C) Copyright 2009 MPC           M.P.E.C. 2009-F09

Read MPEC 2009-F08 Read MPEC 2009-F10


Our Web policy. Index to the CBAT/MPC/ICQ pages.


Valid HTML 4.01!